Location: York
(31.8935°S, 116.7682°E)
Time: 05:19:22
(UTC+08:00)

Envisat - Pass Details

Date: 05 December 2021
Orbit: 764 x 766 km, 98.2° (Epoch: 23 January)

Event Time Altitude Azimuth Distance (km) Brightness Sun altitude
Rises 03:17:11 0° 55° (NE) 3,225 6.4 -18.7°
Reaches altitude 10° 03:20:15 10° 74° (ENE) 2,308 5.9 -18.2°
Maximum altitude 03:23:25 17° 113° (ESE) 1,884 6.0 -17.7°
Drops below altitude 10° 03:26:36 10° 152° (SSE) 2,325 6.6 -17.2°
Sets 03:29:42 0° 171° (S) 3,260 7.1 -16.7°
